[[{"header":{"parameterUnit":"m.s-1","parameterCategory":1,"la1":30.2991,"la2":30.254,"lo1":-89.0895,"lo2":-89.0444,"dy":0.0017,"dx":0.0017,"nx":28,"ny":28,"refTime":"2025-06-23T03:00:00:Z","depth":0,"parameterNumber":2,"parameterNumberName":"U-component_of_WINDS"},"data":[0,0,0,0,0,0,0,0,0,0,0,0,0,0,0,0,0,0,0,0,0,0,0,0,0,0,0,0,0,0,0,0,0,0,0,0,0,0,0,0,0,0,0,0,0,0,0,0,0,0,0,0,0,0,0,0,0,0,-2.5776,-2.5776,0,-2.5773,-2.5772,-2.5772,-2.5724,-2.5723,-2.5722,-2.572,-2.5716,-2.5717,-2.5718,0,0,0,0,0,0,0,0,0,0,0,0,0,-2.5742,-2.5743,-2.5776,-2.5776,-2.5776,-2.5773,-2.5772,-2.5772,-2.5724,-2.5723,-2.5721,-2.572,-2.5716,-2.5717,-2.5718,0,0,0,0,0,0,0,0,0,0,0,0,0,-2.5749,-2.5743,-2.5776,-2.5752,-2.5749,-2.5773,-2.5772,-2.5772,-2.5725,-2.5723,-2.5721,-2.5719,-2.5715,-2.5717,-2.5718,-2.5765,0,0,-2.5723,-2.5724,0,0,0,0,0,0,0,0,-2.5749,-2.5751,-2.5755,-2.5753,-2.5751,-2.5747,-2.5759,-2.577,-2.5725,-2.5734,-2.572,-2.5718,-2.5728,-2.5728,-2.5732,-2.5764,-2.5764,-2.5723,-2.5724,-2.5725,-2.5725,0,0,0,0,0,0,0,-2.5748,-2.5751,-2.5775,-2.5756,-2.5753,-2.5741,-2.574,-2.5761,-2.5741,-2.5733,-2.573,-2.573,-2.5726,-2.573,-2.5731,-2.5764,-2.5723,-2.5725,-2.5726,-2.5726,-2.5835,-2.5837,0,0,0,0,0,0,-2.5751,-2.575,-2.5775,-2.5775,-2.5745,-2.5743,-2.5742,-2.575,-2.5741,-2.5738,-2.5731,-2.5728,-2.5728,-2.5729,-2.5731,-2.5785,-2.5725,-2.5726,-2.5727,-2.5834,-2.5836,-2.5838,0,0,0,0,0,0,-2.5751,-2.5754,-2.5775,-2.5762,-2.5763,-2.5746,-2.5755,-2.5751,-2.5755,-2.574,-2.5736,-2.5739,-2.5727,-2.5729,-2.5757,-2.5784,-2.5727,-2.5728,-2.5831,-2.5834,-2.5837,-2.5893,0,0,0,0,0,0,-2.575,-2.5754,-2.5771,-2.5762,-2.5764,-2.5801,-2.5757,-2.5752,-2.5758,-2.5753,-2.5746,-2.5743,-2.5726,-2.5755,-2.5758,-2.5785,-2.573,-2.5829,-2.5833,-2.5836,-2.5888,-2.5897,-2.5905,0,0,0,0,0,-2.5749,-2.5787,-2.5772,-2.5776,-2.5785,-2.5803,-2.5804,-2.5784,-2.576,-2.5777,-2.5768,-2.5743,-2.578,-2.5758,-2.5762,-2.5789,-2.5827,-2.5831,-2.5836,-2.5885,-2.5895,-2.5904,0,0,0,0,0,0,-2.5799,-2.5785,-2.5769,-2.5805,-2.5806,-2.5795,-2.5816,-2.5796,-2.5803,-2.5798,-2.5772,-2.5771,-2.5803,-2.5799,-2.5774,-2.5834,-2.5799,-2.5805,-2.5835,-2.5845,-2.5853,-2.5854,-2.5731,0,0,0,0,0,-2.5814,-2.583,-2.5817,-2.585,-2.5851,-2.5834,-2.584,-2.5825,-2.5824,-2.5824,-2.5816,-2.5817,-2.5828,-2.5837,-2.5847,-2.5888,-2.5886,-2.5908,-2.5917,-2.5923,-2.5928,-2.595,-2.596,-2.5853,-2.5853,-2.5853,0,0,-2.5846,-2.584,-2.5851,-2.586,-2.5858,-2.5875,-2.5834,-2.5853,-2.5865,-2.5827,-2.5853,-2.5848,-2.5846,-2.5881,-2.5896,-2.5879,-2.5958,-2.5929,-2.5935,-2.5936,-2.5956,-2.5966,-2.5975,-2.5856,-2.5855,-2.5855,0,0,-2.5912,-2.5909,-2.5937,-2.5936,-2.5935,-2.5923,-2.593,-2.5922,-2.5918,-2.5944,-2.5915,-2.593,-2.595,-2.5951,-2.5954,-2.6021,-2.5999,-2.6025,-2.6068,-2.609,-2.6098,-2.6106,-2.613,-2.614,-2.603,-2.603,-2.6031,0,-2.5951,-2.5975,-2.5953,-2.5975,-2.5979,-2.5946,-2.5974,-2.5975,-2.5977,-2.5981,-2.5961,-2.5987,-2.5984,-2.6019,-2.6035,-2.6039,-2.6046,-2.6026,-2.6099,-2.6106,-2.6113,-2.6136,-2.6145,-2.6034,-2.6033,-2.6033,-2.6033,0,-2.6024,-2.6041,-2.6063,-2.6067,-2.6074,-2.6099,-2.6081,-2.6091,-2.6075,-2.6066,-2.6093,-2.6088,-2.6097,-2.6104,-2.6089,-2.6137,-2.6127,-2.6104,-2.6068,-2.6127,-2.6148,-2.6157,-2.6038,-2.6037,-2.6036,-2.6035,0,0,-2.612,-2.6112,-2.6121,-2.6122,-2.6119,-2.6132,-2.6155,-2.6164,-2.6173,-2.6176,-2.6195,-2.6214,-2.6193,-2.6197,-2.6181,-2.62,-2.6255,-2.6175,-2.6174,-2.619,-2.6309,-2.6326,-2.6337,-2.624,-2.6242,-2.6243,-2.6309,0,-2.6184,-2.6224,-2.6205,-2.6247,-2.6263,-2.6232,-2.6253,-2.6253,-2.6245,-2.6258,-2.6249,-2.6263,-2.6234,-2.6236,-2.6253,-2.6245,-2.6278,-2.6239,-2.6258,-2.6259,-2.6259,-2.6348,-2.6366,-2.6429,-2.6317,-2.6319,-2.632,0,-2.6263,-2.627,-2.6314,-2.6309,-2.6315,-2.6333,-2.6341,-2.6353,-2.6353,-2.6346,-2.6351,-2.6331,-2.6354,-2.6319,-2.6351,-2.6325,-2.6331,-2.6328,-2.633,-2.6331,-2.6293,-2.6352,-2.6448,-2.6458,-2.6333,-2.6332,-2.6331,0,-2.633,-2.635,-2.6379,-2.6381,-2.6375,-2.639,-2.6388,-2.6386,-2.6393,-2.6399,-2.6404,-2.6413,-2.6418,-2.6425,-2.6409,-2.6385,-2.6443,-2.6407,-2.6438,-2.6438,-2.6451,-2.645,-2.655,-2.6455,-2.6455,-2.6455,-2.6455,0,-2.6403,-2.6431,-2.6409,-2.6427,-2.6457,-2.6436,-2.6467,-2.6462,-2.6461,-2.6477,-2.6451,-2.6467,-2.6444,-2.6458,-2.6445,-2.6473,-2.6476,-2.6471,-2.6467,-2.6473,-2.6474,-2.6477,-2.6472,-2.6457,-2.6457,-2.6456,-2.6456,0,-2.6482,-2.6468,-2.6498,-2.6491,-2.649,-2.6513,-2.6506,-2.6523,-2.6513,-2.6535,-2.6538,-2.6524,-2.6539,-2.6523,-2.6537,-2.6528,-2.6567,-2.6556,-2.6567,-2.6564,-2.6596,-2.6593,-2.6701,-2.6715,-2.6611,-2.6612,-2.6613,0,-2.653,-2.6551,-2.6546,-2.6556,-2.6556,-2.6571,-2.6578,-2.6559,-2.6567,-2.657,-2.6586,-2.6599,-2.6608,-2.6634,-2.6624,-2.6635,-2.6625,-2.6662,-2.6626,-2.6632,-2.6626,-2.6625,-2.6627,-2.6669,-2.667,-2.6671,-2.6672,0,-2.6616,-2.6608,-2.662,-2.663,-2.6639,-2.6646,-2.665,-2.666,-2.664,-2.6651,-2.6666,-2.6673,-2.6688,-2.6701,-2.6709,-2.6708,-2.6687,-2.6684,-2.6692,-2.6698,-2.6703,-2.6701,-2.6587,-2.6681,-2.668,-2.668,-2.6679,-2.6679,-2.668,-2.6698,-2.6698,-2.6712,-2.6714,-2.6719,-2.6734,-2.6728,-2.674,-2.6751,-2.6738,-2.6758,-2.6758,-2.6767,-2.6768,-2.6782,-2.6766,-2.6778,-2.678,-2.6784,-2.6789,-2.6701,-2.6784,-2.6783,-2.6783,-2.6783,-2.6783,0,-2.6765,-2.6764,-2.6778,-2.6785,-2.6797,-2.6777,-2.6781,-2.6792,-2.6809,-2.6812,-2.6822,-2.684,-2.6853,-2.6845,-2.6857,-2.687,-2.6861,-2.6874,-2.6872,-2.6872,-2.6802,-2.6794,-2.6881,-2.6881,-2.6881,-2.6881,-2.6881,-2.6881,-2.6811,-2.684,-2.6833,-2.6862,-2.6861,-2.688,-2.6884,-2.6889,-2.6891,-2.6912,-2.6923,-2.6918,-2.6917,-2.6928,-2.6939,-2.6937,-2.6942,-2.6959,-2.6953,-2.6887,-2.6877,-2.6868,-2.6861,-2.696,-2.696,-2.7022,-2.7023,-2.7023]},{"header":{"parameterUnit":"m.s-1","parameterCategory":1,"la1":30.2991,"la2":30.254,"lo1":-89.0895,"lo2":-89.0444,"dy":0.0017,"dx":0.0017,"nx":28,"ny":28,"refTime":"2025-06-23T03:00:00:Z","depth":0,"parameterNumber":3,"parameterNumberName":"V-component_of_WINDS"},"data":[0,0,0,0,0,0,0,0,0,0,0,0,0,0,0,0,0,0,0,0,0,0,0,0,0,0,0,0,0,0,0,0,0,0,0,0,0,0,0,0,0,0,0,0,0,0,0,0,0,0,0,0,0,0,0,0,0,0,-0.9269,-0.927,0,-0.932,-0.932,-0.9321,-0.932,-0.932,-0.9319,-0.9318,-0.9371,-0.9373,-0.9375,0,0,0,0,0,0,0,0,0,0,0,0,0,-0.9172,-0.9174,-0.9269,-0.927,-0.927,-0.932,-0.932,-0.9321,-0.9321,-0.932,-0.9319,-0.9318,-0.9371,-0.9373,-0.9375,0,0,0,0,0,0,0,0,0,0,0,0,0,-0.9217,-0.9174,-0.9269,-0.9276,-0.9277,-0.932,-0.932,-0.9321,-0.9321,-0.932,-0.9319,-0.9318,-0.937,-0.9373,-0.9376,-0.9415,0,0,-0.9385,-0.9386,0,0,0,0,0,0,0,0,-0.9215,-0.9221,-0.9274,-0.9275,-0.9277,-0.9313,-0.9305,-0.9353,-0.9321,-0.9304,-0.9318,-0.9317,-0.9353,-0.9357,-0.9369,-0.9417,-0.942,-0.9385,-0.9387,-0.9388,-0.9389,0,0,0,0,0,0,0,-0.9212,-0.9219,-0.9289,-0.9275,-0.9277,-0.9277,-0.9282,-0.9314,-0.9333,-0.9306,-0.9306,-0.9312,-0.9353,-0.9366,-0.937,-0.942,-0.9385,-0.9388,-0.939,-0.9391,-0.9504,-0.9505,0,0,0,0,0,0,-0.9207,-0.9216,-0.9287,-0.9291,-0.9243,-0.9279,-0.9285,-0.9302,-0.9333,-0.9337,-0.9312,-0.9311,-0.9361,-0.9366,-0.9372,-0.942,-0.9388,-0.9391,-0.9393,-0.9502,-0.9504,-0.9505,0,0,0,0,0,0,-0.9205,-0.9213,-0.9285,-0.9253,-0.9263,-0.9282,-0.9301,-0.9304,-0.9316,-0.9338,-0.9342,-0.9322,-0.9361,-0.9368,-0.9404,-0.9422,-0.9393,-0.9395,-0.9501,-0.9503,-0.9504,-0.9516,0,0,0,0,0,0,-0.9202,-0.9213,-0.9228,-0.9254,-0.9264,-0.9317,-0.9302,-0.9305,-0.9322,-0.9321,-0.9348,-0.9352,-0.936,-0.94,-0.9407,-0.9426,-0.9398,-0.95,-0.9502,-0.9504,-0.9515,-0.9518,-0.9522,0,0,0,0,0,-0.9199,-0.9229,-0.9228,-0.9237,-0.9283,-0.9318,-0.9324,-0.9333,-0.9323,-0.9338,-0.9352,-0.9351,-0.9418,-0.9403,-0.9412,-0.9431,-0.9499,-0.9501,-0.9504,-0.9513,-0.9518,-0.9522,0,0,0,0,0,0,-0.9205,-0.9233,-0.9232,-0.9272,-0.9292,-0.9318,-0.9337,-0.9338,-0.9362,-0.936,-0.937,-0.9376,-0.9413,-0.9426,-0.9408,-0.9471,-0.9457,-0.9462,-0.9461,-0.9466,-0.9469,-0.9466,-0.94,0,0,0,0,0,-0.9211,-0.9236,-0.9259,-0.9292,-0.9302,-0.9318,-0.9333,-0.9338,-0.936,-0.9369,-0.9386,-0.9407,-0.9433,-0.945,-0.9475,-0.9516,-0.9522,-0.9534,-0.9537,-0.954,-0.9544,-0.9567,-0.9572,-0.9514,-0.9514,-0.9514,0,0,-0.9224,-0.9242,-0.9257,-0.9294,-0.931,-0.9337,-0.9325,-0.9354,-0.9373,-0.9373,-0.9409,-0.9422,-0.9446,-0.9485,-0.9503,-0.9497,-0.9561,-0.9543,-0.9545,-0.9548,-0.957,-0.9576,-0.958,-0.9515,-0.9515,-0.9515,0,0,-0.926,-0.9276,-0.9306,-0.9322,-0.9347,-0.9358,-0.9365,-0.939,-0.9398,-0.9434,-0.9434,-0.9458,-0.9503,-0.952,-0.9535,-0.9577,-0.9577,-0.9585,-0.9604,-0.9626,-0.9631,-0.9635,-0.9651,-0.9656,-0.9589,-0.9589,-0.9589,0,-0.9273,-0.9313,-0.9321,-0.9349,-0.9366,-0.9366,-0.9396,-0.9412,-0.9444,-0.9455,-0.9447,-0.9503,-0.952,-0.9563,-0.9573,-0.9585,-0.9594,-0.9583,-0.9629,-0.9634,-0.9638,-0.9653,-0.9659,-0.959,-0.959,-0.959,-0.959,0,-0.9327,-0.9355,-0.9375,-0.9406,-0.9424,-0.9453,-0.9466,-0.9484,-0.9487,-0.9498,-0.9534,-0.9554,-0.9583,-0.9594,-0.9597,-0.9637,-0.9633,-0.9627,-0.9614,-0.9644,-0.9659,-0.9664,-0.9591,-0.9591,-0.9591,-0.959,0,0,-0.937,-0.9405,-0.9412,-0.9426,-0.9454,-0.9475,-0.9504,-0.9532,-0.9547,-0.9569,-0.9594,-0.9631,-0.9626,-0.9643,-0.9648,-0.9668,-0.9701,-0.966,-0.966,-0.9667,-0.9747,-0.9751,-0.9758,-0.97,-0.9701,-0.9702,-0.9745,0,-0.9411,-0.9462,-0.947,-0.9516,-0.9541,-0.9542,-0.9567,-0.9586,-0.9597,-0.962,-0.9632,-0.9659,-0.965,-0.966,-0.9679,-0.9693,-0.9717,-0.969,-0.9724,-0.9725,-0.9719,-0.9765,-0.977,-0.981,-0.975,-0.9751,-0.9752,0,-0.9465,-0.9488,-0.9536,-0.9559,-0.957,-0.9593,-0.962,-0.9642,-0.9664,-0.967,-0.9688,-0.9691,-0.9722,-0.9706,-0.9748,-0.9729,-0.9744,-0.9752,-0.9754,-0.9758,-0.9741,-0.9771,-0.9822,-0.9828,-0.9761,-0.976,-0.9759,0,-0.9492,-0.9535,-0.9569,-0.9581,-0.9609,-0.9625,-0.9638,-0.9659,-0.9675,-0.9699,-0.9709,-0.9736,-0.975,-0.9771,-0.9781,-0.9768,-0.9822,-0.9807,-0.9829,-0.9828,-0.9841,-0.984,-0.9895,-0.9849,-0.9848,-0.9848,-0.9848,0,-0.9537,-0.9566,-0.9582,-0.9603,-0.9636,-0.9645,-0.9677,-0.9689,-0.9708,-0.9732,-0.9733,-0.9755,-0.9767,-0.9791,-0.9799,-0.9833,-0.9839,-0.9845,-0.9847,-0.9846,-0.9845,-0.9856,-0.9854,-0.985,-0.985,-0.9849,-0.9849,0,-0.9573,-0.9585,-0.9622,-0.9646,-0.9653,-0.9676,-0.9696,-0.9717,-0.9727,-0.9757,-0.9764,-0.9781,-0.9809,-0.9821,-0.9855,-0.9861,-0.9899,-0.9899,-0.9892,-0.9893,-0.9914,-0.9912,-0.9979,-0.9988,-0.9934,-0.9935,-0.9935,0,-0.9601,-0.9624,-0.965,-0.9666,-0.9679,-0.9704,-0.9721,-0.973,-0.9748,-0.9774,-0.9792,-0.982,-0.9843,-0.9888,-0.9903,-0.9929,-0.993,-0.9951,-0.9934,-0.9931,-0.9931,-0.993,-0.9932,-0.9955,-0.9955,-0.9956,-0.9956,0,-0.965,-0.9655,-0.9679,-0.9705,-0.9724,-0.9745,-0.9766,-0.9779,-0.9791,-0.9811,-0.9839,-0.9857,-0.9892,-0.992,-0.9947,-0.996,-0.9961,-0.9961,-0.9968,-0.9967,-0.9962,-0.9965,-0.9902,-0.996,-0.996,-0.9959,-0.9959,-0.9959,-0.9684,-0.9704,-0.9725,-0.9752,-0.9768,-0.9787,-0.9808,-0.982,-0.9844,-0.9874,-0.9878,-0.9908,-0.993,-0.9966,-0.998,-1.0004,-0.9999,-1.0008,-1.0011,-1.0013,-1.0015,-0.9957,-1.0009,-1.0009,-1.0009,-1.0009,-1.0009,0,-0.9733,-0.9747,-0.9771,-0.9799,-0.982,-0.9818,-0.9841,-0.9858,-0.9885,-0.9905,-0.9928,-0.996,-0.9987,-1.0004,-1.0031,-1.0048,-1.0048,-1.0055,-1.0054,-1.0057,-1.0018,-1.001,-1.0054,-1.0053,-1.0053,-1.0053,-1.0053,-1.0053,-0.9761,-0.9795,-0.9802,-0.9844,-0.9858,-0.9888,-0.9901,-0.9919,-0.9934,-0.9971,-0.9993,-1.0004,-1.0023,-1.0051,-1.0076,-1.008,-1.009,-1.0097,-1.0101,-1.0064,-1.006,-1.0055,-1.0048,-1.0099,-1.0099,-1.0138,-1.0139,-1.0139]}]]